When you browse on this site, cookies collect data to enhance your experience and personalize the content and advertising you see.
Visit our Privacy Policy to learn more. By continuing to use the site, you agree to this use of cookies and data.
  • în România
  • Lista ţărilor
  • Pe 7 zile
  • Temperatura apei
  • Meteo pe hartă
  • Widget-uri
  • user-avatar
    Intrare

    Meteo pe oră la Saint-Sebastien-sur-Loire

    Astăzi, 19 Septembrie, Joi

    Timp Temperatura Precipitaţii Vânt Presiune Umiditate
    00:00 +14°C° 0 mm 6 m/s 766 mmHg 55%
    01:00 +13°C° 0 mm 6 m/s 766 mmHg 58%
    02:00 +13°C° 0 mm 6 m/s 766 mmHg 61%
    03:00 +11°C° 0 mm 6 m/s 766 mmHg 64%
    04:00 +11°C° 0 mm 6 m/s 766 mmHg 66%
    05:00 +10°C° 0 mm 6 m/s 766 mmHg 67%
    06:00 +10°C° 0 mm 6 m/s 766 mmHg 69%
    07:00 +12°C° 0 mm 7 m/s 766 mmHg 60%
    08:00 +15°C° 0 mm 8 m/s 767 mmHg 52%
    09:00 +17°C° 0 mm 8 m/s 767 mmHg 44%
    10:00 +20°C° 0 mm 8 m/s 766 mmHg 40%
    11:00 +21°C° 0 mm 9 m/s 766 mmHg 36%
    12:00 +23°C° 0 mm 9 m/s 766 mmHg 31%
    13:00 +23°C° 0 mm 9 m/s 765 mmHg 30%
    14:00 +24°C° 0 mm 9 m/s 765 mmHg 29%
    15:00 +24°C° 0 mm 9 m/s 765 mmHg 27%
    16:00 +23°C° 0 mm 8 m/s 764 mmHg 29%
    17:00 +21°C° 0 mm 7 m/s 764 mmHg 31%
    18:00 +20°C° 0 mm 6 m/s 764 mmHg 33%
    19:00 +19°C° 0 mm 6 m/s 764 mmHg 35%
    20:00 +17°C° 0 mm 6 m/s 765 mmHg 38%
    21:00 +16°C° 0 mm 7 m/s 765 mmHg 40%
    22:00 +15°C° 0 mm 7 m/s 765 mmHg 42%
    23:00 +15°C° 0 mm 7 m/s 764 mmHg 44%

    Mâine, 20 Septembrie, Vineri

    Timp Temperatura Precipitaţii Vânt Presiune Umiditate
    00:00 +14°C° 0 mm 7 m/s 764 mmHg 46%
    01:00 +14°C° 0 mm 7 m/s 764 mmHg 46%
    02:00 +13°C° 0 mm 6 m/s 763 mmHg 47%
    03:00 +11°C° 0 mm 6 m/s 763 mmHg 48%
    04:00 +11°C° 0 mm 6 m/s 763 mmHg 50%
    05:00 +10°C° 0 mm 6 m/s 762 mmHg 51%
    06:00 +10°C° 0 mm 6 m/s 762 mmHg 53%
    07:00 +12°C° 0 mm 7 m/s 762 mmHg 48%
    08:00 +14°C° 0 mm 7 m/s 762 mmHg 43%
    09:00 +16°C° 0 mm 7 m/s 762 mmHg 38%
    10:00 +20°C° 0 mm 7 m/s 761 mmHg 35%
    11:00 +22°C° 0 mm 7 m/s 761 mmHg 32%
    12:00 +26°C° 0 mm 6 m/s 760 mmHg 28%
    13:00 +27°C° 0 mm 6 m/s 759 mmHg 28%
    14:00 +28°C° 0 mm 5 m/s 759 mmHg 29%
    15:00 +29°C° 0 mm 5 m/s 758 mmHg 29%
    16:00 +27°C° 0 mm 5 m/s 758 mmHg 31%
    17:00 +26°C° 0 mm 5 m/s 757 mmHg 34%
    18:00 +25°C° 0 mm 4 m/s 757 mmHg 37%
    19:00 +23°C° 0 mm 5 m/s 757 mmHg 37%
    20:00 +22°C° 0 mm 5 m/s 757 mmHg 37%
    21:00 +21°C° 0 mm 5 m/s 757 mmHg 38%
    22:00 +21°C° 0 mm 5 m/s 757 mmHg 44%
    23:00 +21°C° 0 mm 5 m/s 756 mmHg 51%

    Poimâine, 21 Septembrie, Sâmbătă

    Timp Temperatura Precipitaţii Vânt Presiune Umiditate
    00:00 +20°C° 0 mm 5 m/s 756 mmHg 57%
    01:00 +20°C° 0.1 mm 5 m/s 756 mmHg 65%
    02:00 +20°C° 0.1 mm 5 m/s 755 mmHg 73%
    03:00 +19°C° 0.1 mm 5 m/s 755 mmHg 80%
    04:00 +19°C° 0.1 mm 5 m/s 755 mmHg 84%
    05:00 +18°C° 0.1 mm 4 m/s 754 mmHg 87%
    06:00 +18°C° 0.1 mm 4 m/s 754 mmHg 90%
    07:00 +20°C° 0 mm 5 m/s 754 mmHg 81%
    08:00 +22°C° 0 mm 6 m/s 754 mmHg 73%
    09:00 +24°C° 0 mm 7 m/s 754 mmHg 64%
    10:00 +26°C° 0 mm 7 m/s 754 mmHg 57%
    11:00 +28°C° 0 mm 7 m/s 754 mmHg 50%
    12:00 +29°C° 0 mm 7 m/s 753 mmHg 42%
    13:00 +30°C° 0 mm 7 m/s 753 mmHg 40%
    14:00 +30°C° 0 mm 7 m/s 753 mmHg 38%
    15:00 +30°C° 0 mm 7 m/s 752 mmHg 36%
    16:00 +28°C° 0 mm 6 m/s 752 mmHg 41%
    17:00 +26°C° 0 mm 5 m/s 752 mmHg 46%
    18:00 +25°C° 0 mm 3 m/s 751 mmHg 52%
    19:00 +23°C° 0 mm 4 m/s 751 mmHg 60%
    20:00 +22°C° 0 mm 4 m/s 751 mmHg 68%
    21:00 +21°C° 0 mm 5 m/s 751 mmHg 76%
    22:00 +21°C° 0.2 mm 5 m/s 751 mmHg 76%
    23:00 +21°C° 0.2 mm 5 m/s 751 mmHg 76%

    22 Septembrie, Duminică

    Timp Temperatura Precipitaţii Vânt Presiune Umiditate
    00:00 +22°C° 0.2 mm 6 m/s 751 mmHg 76%
    01:00 +20°C° 0.2 mm 5 m/s 751 mmHg 78%
    02:00 +17°C° 0.2 mm 5 m/s 751 mmHg 80%
    03:00 +17°C° 0.2 mm 4 m/s 752 mmHg 82%
    04:00 +15°C° 0.2 mm 4 m/s 752 mmHg 85%
    05:00 +15°C° 0.2 mm 4 m/s 752 mmHg 87%
    06:00 +15°C° 0.2 mm 4 m/s 753 mmHg 90%
    07:00 +16°C° 0.1 mm 5 m/s 753 mmHg 81%
    08:00 +19°C° 0.1 mm 6 m/s 753 mmHg 72%
    09:00 +20°C° 0.1 mm 8 m/s 754 mmHg 63%
    10:00 +21°C° 0 mm 8 m/s 754 mmHg 59%
    11:00 +21°C° 0 mm 9 m/s 754 mmHg 55%
    12:00 +22°C° 0 mm 10 m/s 754 mmHg 51%
    13:00 +21°C° 0.5 mm 9 m/s 754 mmHg 56%
    14:00 +19°C° 0.5 mm 9 m/s 754 mmHg 61%
    15:00 +19°C° 0.5 mm 9 m/s 754 mmHg 65%
    16:00 +18°C° 0 mm 8 m/s 755 mmHg 66%
    17:00 +17°C° 0 mm 7 m/s 755 mmHg 66%
    18:00 +16°C° 0 mm 6 m/s 756 mmHg 67%
    19:00 +15°C° 0 mm 5 m/s 757 mmHg 72%
    20:00 +15°C° 0 mm 4 m/s 758 mmHg 77%
    21:00 +14°C° 0 mm 3 m/s 758 mmHg 82%
    22:00 +13°C° 0 mm 3 m/s 758 mmHg 85%
    23:00 +13°C° 0 mm 3 m/s 758 mmHg 88%

    23 Septembrie, Luni

    Timp Temperatura Precipitaţii Vânt Presiune Umiditate
    00:00 +14°C° 0 mm 2 m/s 759 mmHg 90%
    01:00 +13°C° 0 mm 3 m/s 759 mmHg 90%
    02:00 +13°C° 0 mm 3 m/s 759 mmHg 91%
    03:00 +13°C° 0 mm 3 m/s 759 mmHg 91%
    04:00 +13°C° 0 mm 3 m/s 759 mmHg 91%
    05:00 +13°C° 0 mm 3 m/s 759 mmHg 91%
    06:00 +13°C° 0 mm 3 m/s 759 mmHg 91%
    07:00 +16°C° 0 mm 3 m/s 759 mmHg 83%
    08:00 +18°C° 0 mm 4 m/s 759 mmHg 75%
    09:00 +20°C° 0 mm 5 m/s 759 mmHg 67%
    10:00 +20°C° 0.1 mm 6 m/s 759 mmHg 64%
    11:00 +21°C° 0.1 mm 6 m/s 759 mmHg 61%
    12:00 +21°C° 0.1 mm 7 m/s 759 mmHg 57%
    13:00 +20°C° 0.6 mm 7 m/s 759 mmHg 66%
    14:00 +18°C° 0.6 mm 7 m/s 759 mmHg 75%
    15:00 +16°C° 0.6 mm 6 m/s 758 mmHg 84%
    16:00 +16°C° 1.7 mm 7 m/s 758 mmHg 86%
    17:00 +16°C° 1.7 mm 7 m/s 758 mmHg 88%
    18:00 +16°C° 1.7 mm 7 m/s 758 mmHg 90%
    19:00 +16°C° 0.3 mm 7 m/s 759 mmHg 90%
    20:00 +17°C° 0.3 mm 7 m/s 759 mmHg 91%
    21:00 +17°C° 0.3 mm 6 m/s 759 mmHg 91%
    22:00 +17°C° 0.1 mm 6 m/s 759 mmHg 92%
    23:00 +17°C° 0.1 mm 6 m/s 759 mmHg 93%

    24 Septembrie, Marţi

    Timp Temperatura Precipitaţii Vânt Presiune Umiditate
    00:00 +17°C° 0.1 mm 5 m/s 759 mmHg 94%
    01:00 +17°C° 0 mm 5 m/s 759 mmHg 94%
    02:00 +17°C° 0 mm 5 m/s 758 mmHg 94%
    03:00 +17°C° 0 mm 5 m/s 758 mmHg 94%
    04:00 +17°C° 0.1 mm 5 m/s 758 mmHg 92%
    05:00 +17°C° 0.1 mm 6 m/s 757 mmHg 90%
    06:00 +17°C° 0.1 mm 6 m/s 757 mmHg 89%
    07:00 +17°C° 0.6 mm 7 m/s 757 mmHg 87%
    08:00 +18°C° 0.6 mm 7 m/s 757 mmHg 86%
    09:00 +18°C° 0.6 mm 8 m/s 757 mmHg 84%
    10:00 +18°C° 1.6 mm 8 m/s 757 mmHg 86%
    11:00 +18°C° 1.6 mm 8 m/s 756 mmHg 87%
    12:00 +18°C° 1.6 mm 9 m/s 756 mmHg 89%
    13:00 +18°C° 0.5 mm 8 m/s 756 mmHg 89%
    14:00 +20°C° 0.5 mm 8 m/s 756 mmHg 88%
    15:00 +20°C° 0.5 mm 8 m/s 756 mmHg 88%
    16:00 +20°C° 0.2 mm 8 m/s 755 mmHg 89%
    17:00 +20°C° 0.2 mm 7 m/s 755 mmHg 90%
    18:00 +19°C° 0.2 mm 6 m/s 755 mmHg 91%
    19:00 +17°C° 0 mm 6 m/s 756 mmHg 92%
    20:00 +17°C° 0 mm 5 m/s 756 mmHg 93%
    21:00 +17°C° 0 mm 4 m/s 756 mmHg 94%
    22:00 +15°C° 0 mm 4 m/s 756 mmHg 94%
    23:00 +15°C° 0 mm 4 m/s 756 mmHg 93%
    Arată mai mult